THAICOM 8

Last updated on Sun Oct 06 2024 00:02:40 GMT+0000 (Coordinated Universal Time)

1 41552U 16031A 24279.55653161 -.00000112 00000+0 00000+0 0 9997 2 41552 0.0748 45.1358 0001471 160.6225 87.8722 1.00272952 30509
UTC large
Height (km)
Speed (km/s)
/
Latitude / Longitude
Inclination (degrees)
Orbital Period (minutes)
Azimuth
Elevation
Range (km)
Doppler Factor

Next 0 passes for location: London (51.5072 / 0.1276)

Sorry there are no passes over London.